This is the latest recevied weather packets stored in our database for station/object WX4SGA. If no packets are shown the sender has not sent any weather packets the latest 10 day(s).
| Time | Temp. | Humidity | Pressure | Rain* | Wind** | Luminosity | Snow |
|---|---|---|---|---|---|---|---|
| 1788375700 | 32.78° C | 61% | 1017.3 hPa | 0 mm | - | 803 W/m² | - |
| 1788375395 | 32.78° C | 58% | 1017.6 hPa | 0 mm | - | 475 W/m² | - |
| 1788375091 | 32.78° C | 57% | 1017.6 hPa | 0 mm | - | 556 W/m² | - |
| 1788374786 | 33.33° C | 57% | 1017.6 hPa | 0 mm | - | 150 W/m² | - |
| 1788374481 | 32.78° C | 59% | 1017.6 hPa | 0 mm | - | 813 W/m² | - |
| 1788374178 | 32.22° C | 61% | 1017.6 hPa | 0 mm | - | 314 W/m² | - |
| 1788373874 | 32.78° C | 60% | 1018 hPa | 0 mm | - | 484 W/m² | - |
| 1788373564 | 32.78° C | 58% | 1018 hPa | 0 mm | - | 780 W/m² | - |
| 1788373260 | 32.78° C | 56% | 1018 hPa | 0 mm | - | 820 W/m² | - |
| 1788372956 | 32.78° C | 60% | 1018 hPa | 0 mm | - | 819 W/m² | - |
| 1788372649 | 32.22° C | 60% | 1018 hPa | 0 mm | - | 824 W/m² | - |
| 1788372344 | 32.22° C | 62% | 1018 hPa | 0 mm | - | 810 W/m² | - |
| 1788372040 | 32.22° C | 60% | 1018 hPa | 0 mm | - | 826 W/m² | - |
| 1788371740 | 32.22° C | 57% | 1018 hPa | 0 mm | - | 819 W/m² | - |
| 1788371436 | 32.22° C | 63% | 1018 hPa | 0 mm | - | 825 W/m² | - |
| 1788371132 | 32.22° C | 61% | 1018 hPa | 0 mm | - | 778 W/m² | - |
| 1788370849 | 31.67° C | 64% | 1018 hPa | 0 mm | - | 831 W/m² | - |
| 1788370522 | 32.22° C | 62% | 1018 hPa | 0 mm | - | 611 W/m² | - |
| 1788370221 | 32.22° C | 65% | 1018.3 hPa | 0 mm | - | 847 W/m² | - |
| 1788369921 | 31.67° C | 67% | 1018.3 hPa | 0 mm | - | 402 W/m² | - |
| 1788369616 | 32.22° C | 62% | 1018.3 hPa | 0 mm | - | 858 W/m² | - |
| 1788369328 | 32.22° C | 62% | 1018.6 hPa | 0 mm | - | 840 W/m² | - |
| 1788369007 | 31.67° C | 66% | 1018.6 hPa | 0 mm | - | 844 W/m² | - |
| 1788368702 | 31.67° C | 67% | 1018.6 hPa | 0 mm | - | 810 W/m² | - |
| 1788368397 | 32.22° C | 64% | 1019 hPa | 0 mm | - | 553 W/m² | - |
* Rain latest hour (hover to see other rain measurements)
** Current wind speed in m/s (hover to see current wind gust speed)